Flag for Finland Weather past 2 weeks in Helsinki, Finland

Now
59 °F

Partly sunny.


Feels Like: 59 °F
Forecast: 46 / 62 °F
Wind: 5 mph from Southeast

Location: Helsinki Malmi Airport

Current Time: Sep 1, 2014 at 5:32:13 PM

Latest Report: Sep 1, 2014 at 4:50 PM


Visibility: N/A

Pressure: 30.24 "Hg

Humidity: 68%

Dew point: 48 °F

Location of HelsinkiLocation

Historic Weather in Helsinki — Graph

°F

Helsinki temperature yesterday

Maximum temperature yesterday: 59 °F (at 12:50 PM)
Minimum temperature yesterday: 46 °F (at 6:50 AM)
Average temperature yesterday: 54 °F

Past Weeks' High & Low Weather Summary

 TemperatureHumidityPressure
High68 °F (Aug 17, 4:20 PM)100% (Aug 18, 1:50 AM)30.27 "Hg (Aug 18, 1:50 AM)
Low45 °F (Sep 1, 4:20 AM)48% (Aug 30, 3:20 PM)29.30 "Hg (Aug 26, 9:20 AM)
Average57 °F84%29.72 "Hg
* Reported Aug 17 4:20 PM — Sep 1 4:20 PM, Helsinki, Weather by CustomWeather, © 2014

Note: Actual official high and low records may vary slightly from our data, if they occured in-between our weather recording intervals... More about our weather records

Advertising

Helsinki weather history for previous 24 hours

 ConditionsComfort  
Time TempWeatherWind HumidityBarometerVisibility
4:20 PM
Sep 1
59 °FPartly sunny.2 mph68%30.24 "HgN/A
3:50 PM57 °FPartly sunny.3 mph72%30.24 "HgN/A
3:20 PM57 °FPartly sunny.1 mph72%30.24 "HgN/A
2:50 PM57 °FPartly sunny.2 mph72%30.27 "HgN/A
2:20 PM57 °FBroken clouds.2 mph72%30.27 "HgN/A
1:50 PM57 °FPartly sunny.3 mph72%30.27 "HgN/A
1:20 PM57 °FPartly sunny.7 mph72%30.27 "HgN/A
12:50 PM57 °FBroken clouds.7 mph72%30.27 "HgN/A
12:20 PM57 °FPartly sunny.6 mph72%30.27 "HgN/A
11:50 AM57 °FPartly sunny.5 mph72%30.27 "HgN/A
11:20 AM55 °FPartly sunny.6 mph77%30.27 "HgN/A
10:50 AM55 °FBroken clouds.3 mph77%30.27 "HgN/A
10:20 AM55 °FBroken clouds.5 mph77%30.27 "HgN/A
9:50 AM54 °FBroken clouds.3 mph77%30.27 "HgN/A
9:20 AM54 °FPartly sunny.3 mph77%30.27 "HgN/A
8:50 AM50 °FPartly sunny.2 mph82%30.27 "HgN/A
8:20 AM50 °FPartly sunny.1 mph82%30.27 "HgN/A
7:50 AM48 °FOvercast.1 mph87%30.27 "HgN/A
7:20 AM48 °FPartly sunny.2 mph87%30.27 "HgN/A
6:50 AM48 °FPassing clouds.2 mph82%30.27 "HgN/A
6:20 AM46 °FPassing clouds.2 mph93%30.27 "HgN/A
5:50 AM45 °FPassing clouds.3 mph93%30.27 "HgN/A
5:20 AM45 °FPassing clouds.2 mph93%30.27 "HgN/A
4:50 AM45 °FClear.2 mph93%30.27 "Hg10 mi
4:20 AM45 °FClear.3 mph93%30.27 "Hg10 mi
3:50 AM46 °FClear.2 mph93%30.27 "Hg10 mi
3:20 AM46 °FClear.2 mph93%30.27 "Hg10 mi
2:50 AM46 °FClear.1 mph93%30.27 "Hg10 mi
2:20 AM48 °FClear.2 mph87%30.24 "Hg10 mi
1:50 AM48 °FClear.2 mph94%30.24 "Hg10 mi
1:20 AM48 °FClear.1 mph87%30.24 "Hg10 mi
12:50 AM48 °FClear.1 mph94%30.24 "Hg10 mi
12:20 AM50 °FClear.2 mph88%30.24 "Hg10 mi
11:50 PM
Aug 31
50 °FClear.2 mph88%30.24 "Hg10 mi
11:20 PM50 °FClear.2 mph88%30.24 "Hg10 mi
10:50 PM52 °FPassing clouds.2 mph82%30.24 "HgN/A
10:20 PM52 °FPassing clouds.1 mph82%30.24 "HgN/A
9:50 PM54 °FPassing clouds.3 mph77%30.24 "HgN/A
9:20 PM54 °FPassing clouds.5 mph77%30.24 "HgN/A
8:20 PM55 °FPartly sunny.3 mph77%30.21 "HgN/A
7:50 PM55 °FPartly sunny.3 mph72%30.21 "HgN/A
7:20 PM55 °FPartly sunny.3 mph72%30.21 "HgN/A
6:50 PM57 °FPartly sunny.5 mph67%30.21 "HgN/A
6:20 PM57 °FPartly sunny.5 mph67%30.21 "HgN/A
5:50 PM57 °FPartly sunny.6 mph63%30.21 "HgN/A
5:20 PM59 °FPartly sunny.6 mph63%30.21 "HgN/A
Weather by CustomWeather, © 2014

See weather overviewHow to use our weather pages